[[{"header":{"parameterUnit":"m.s-1","parameterCategory":1,"la1":30.2991,"la2":30.254,"lo1":-89.0895,"lo2":-89.0444,"dy":0.0017,"dx":0.0017,"nx":28,"ny":28,"refTime":"2023-08-30T03:00:00:Z","depth":0,"parameterNumber":2,"parameterNumberName":"U-component_of_WINDS"},"data":[0,0,0,0,0,0,0,0,0,0,0,0,0,0,0,0,0,0,0,0,0,0,0,0,0,0,0,0,0,0,0,0,0,0,0,0,0,0,0,0,0,0,0,0,0,0,0,0,0,0,0,0,0,0,0,0,0,0,0.2533,0.2531,0,0.2351,0.2349,0.2347,0.2256,0.2256,0.2256,0.2256,0.2066,0.2061,0.2056,0,0,0,0,0,0,0,0,0,0,0,0,0,0.2802,0.2798,0.2534,0.2531,0.2529,0.2351,0.2349,0.2346,0.2256,0.2256,0.2256,0.2256,0.2068,0.2062,0.2056,0,0,0,0,0,0,0,0,0,0,0,0,0,0.2659,0.2796,0.2534,0.2462,0.2454,0.2352,0.2348,0.2345,0.2256,0.2256,0.2256,0.2256,0.207,0.2063,0.2055,0.2009,0,0,0.2032,0.2029,0,0,0,0,0,0,0,0,0.2667,0.2649,0.2475,0.2467,0.2458,0.2326,0.2374,0.2232,0.2256,0.2331,0.2256,0.2256,0.2153,0.2138,0.2104,0.2,0.1992,0.2031,0.2027,0.2024,0.2021,0,0,0,0,0,0,0,0.2678,0.2657,0.2461,0.2473,0.2462,0.2439,0.2419,0.2347,0.2244,0.2324,0.2317,0.2297,0.2148,0.2111,0.2099,0.1989,0.2032,0.2025,0.202,0.2017,0.1839,0.1838,0,0,0,0,0,0,0.2699,0.2666,0.2467,0.2456,0.2565,0.2434,0.2411,0.2368,0.2245,0.2226,0.2297,0.2294,0.2124,0.2108,0.2092,0.2029,0.2024,0.2017,0.2012,0.1839,0.1839,0.1838,0,0,0,0,0,0,0.2705,0.2682,0.2474,0.2559,0.253,0.243,0.2382,0.2365,0.2328,0.2224,0.2205,0.2279,0.2124,0.2102,0.203,0.2022,0.2013,0.2006,0.1839,0.1839,0.1838,0.1905,0,0,0,0,0,0,0.2714,0.2685,0.2667,0.2559,0.2526,0.2417,0.2381,0.2361,0.2316,0.2309,0.2202,0.2184,0.2122,0.2042,0.2023,0.2011,0.2,0.1839,0.1839,0.1839,0.1903,0.1907,0.191,0,0,0,0,0,0.2723,0.2692,0.2666,0.2643,0.2501,0.2416,0.2397,0.2327,0.2315,0.2296,0.2229,0.2188,0.2026,0.2036,0.2013,0.1999,0.184,0.1839,0.1839,0.1901,0.1906,0.191,0,0,0,0,0,0,0.2801,0.2677,0.2647,0.258,0.251,0.2401,0.2374,0.2334,0.2265,0.2262,0.2177,0.2153,0.2089,0.2037,0.2049,0.1948,0.1929,0.1924,0.1984,0.1988,0.1991,0.2005,0.1994,0,0,0,0,0,0.281,0.2752,0.2647,0.2598,0.2564,0.2476,0.2436,0.2388,0.2311,0.2281,0.2209,0.2135,0.2068,0.2025,0.1957,0.1896,0.1871,0.1875,0.1878,0.1882,0.1878,0.1842,0.1842,0.1837,0.1837,0.1837,0,0,0.2829,0.2754,0.2722,0.2612,0.2551,0.2493,0.2451,0.239,0.2346,0.2271,0.2199,0.2144,0.2056,0.199,0.1956,0.1944,0.1875,0.1881,0.1885,0.1879,0.1841,0.1842,0.1843,0.1836,0.1836,0.1836,0,0,0.2832,0.277,0.2723,0.2664,0.2573,0.2515,0.2504,0.2402,0.2362,0.2289,0.2232,0.2177,0.2063,0.2003,0.1958,0.194,0.1899,0.1921,0.1939,0.1905,0.1905,0.1905,0.1898,0.1897,0.1918,0.1918,0.1918,0,0.2866,0.2776,0.2703,0.2646,0.2599,0.253,0.2481,0.2427,0.2319,0.2288,0.2276,0.2132,0.2068,0.1986,0.1982,0.1948,0.1932,0.1932,0.1911,0.191,0.1909,0.1902,0.19,0.1921,0.1921,0.192,0.192,0,0.2822,0.2761,0.2733,0.2632,0.2582,0.2529,0.2448,0.2406,0.2363,0.2306,0.2232,0.2154,0.2069,0.2046,0.2003,0.1958,0.1953,0.1928,0.1906,0.1914,0.1906,0.1902,0.1925,0.1924,0.1923,0.1923,0,0,0.2868,0.2728,0.2719,0.2673,0.2569,0.2519,0.2464,0.2382,0.2347,0.2276,0.2227,0.2132,0.2108,0.2057,0.2006,0.1976,0.1967,0.1953,0.195,0.1958,0.1913,0.1933,0.1931,0.194,0.1939,0.1939,0.192,0,0.2856,0.2754,0.2687,0.2611,0.2553,0.2488,0.2439,0.237,0.2316,0.2258,0.2198,0.2132,0.2105,0.2074,0.2041,0.1976,0.1957,0.1976,0.1893,0.1891,0.1916,0.1927,0.1947,0.1933,0.1917,0.1916,0.1916,0,0.2829,0.276,0.2679,0.2582,0.2555,0.2513,0.2433,0.2379,0.2299,0.2262,0.2205,0.2155,0.2093,0.2078,0.1992,0.2006,0.1969,0.1932,0.1929,0.1918,0.1903,0.1915,0.1927,0.1925,0.191,0.191,0.1911,0,0.287,0.2757,0.2694,0.2656,0.2541,0.2513,0.2464,0.2385,0.234,0.227,0.224,0.2164,0.2122,0.2064,0.1994,0.1989,0.1914,0.1894,0.1881,0.1883,0.1867,0.1869,0.1873,0.1844,0.1845,0.1845,0.1845,0,0.2863,0.2816,0.2711,0.2672,0.2617,0.2541,0.2488,0.2434,0.2364,0.2313,0.2251,0.2205,0.2116,0.2058,0.2003,0.194,0.1921,0.1889,0.1874,0.1894,0.1898,0.1867,0.1866,0.1844,0.1844,0.1844,0.1844,0,0.2899,0.2827,0.2754,0.2652,0.2625,0.2589,0.2502,0.2461,0.2404,0.2341,0.2321,0.2231,0.216,0.2085,0.1988,0.1951,0.1891,0.1871,0.1918,0.191,0.1901,0.1903,0.1884,0.1878,0.1856,0.1856,0.1856,0,0.29,0.2862,0.2757,0.2719,0.2671,0.2611,0.2565,0.2489,0.2444,0.2351,0.2322,0.2247,0.2183,0.2072,0.1998,0.1924,0.1902,0.19,0.189,0.1911,0.1901,0.1904,0.19,0.1904,0.1904,0.1905,0.1905,0,0.2908,0.2874,0.2811,0.2736,0.2684,0.2621,0.2555,0.2527,0.2439,0.2391,0.2318,0.2269,0.2171,0.2097,0.2014,0.1962,0.1919,0.1909,0.1902,0.1921,0.195,0.1934,0.1926,0.191,0.1909,0.1909,0.1909,0.1909,0.2925,0.2889,0.2809,0.2741,0.2685,0.2625,0.2582,0.2521,0.2459,0.2374,0.2333,0.226,0.2182,0.2066,0.2016,0.1958,0.1945,0.1935,0.1932,0.1931,0.1936,0.196,0.1943,0.1943,0.1942,0.1942,0.1942,0,0.293,0.2876,0.2815,0.2725,0.2672,0.2637,0.2563,0.2521,0.2458,0.2389,0.2327,0.2244,0.2172,0.2093,0.2017,0.1985,0.1964,0.1968,0.1969,0.1958,0.1952,0.1965,0.1987,0.1987,0.1987,0.1987,0.1987,0.1987,0.2926,0.2863,0.282,0.2728,0.2673,0.2603,0.2563,0.2508,0.2453,0.2363,0.2303,0.2253,0.218,0.2097,0.203,0.2008,0.1983,0.1993,0.1966,0.1962,0.1958,0.1955,0.1967,0.1988,0.1988,0.1976,0.1976,0.1976]},{"header":{"parameterUnit":"m.s-1","parameterCategory":1,"la1":30.2991,"la2":30.254,"lo1":-89.0895,"lo2":-89.0444,"dy":0.0017,"dx":0.0017,"nx":28,"ny":28,"refTime":"2023-08-30T03:00:00:Z","depth":0,"parameterNumber":3,"parameterNumberName":"V-component_of_WINDS"},"data":[0,0,0,0,0,0,0,0,0,0,0,0,0,0,0,0,0,0,0,0,0,0,0,0,0,0,0,0,0,0,0,0,0,0,0,0,0,0,0,0,0,0,0,0,0,0,0,0,0,0,0,0,0,0,0,0,0,0,-5.3065,-5.3067,0,-5.3245,-5.3247,-5.3249,-5.3224,-5.3221,-5.3218,-5.3215,-5.3391,-5.3398,-5.3406,0,0,0,0,0,0,0,0,0,0,0,0,0,-5.2691,-5.2698,-5.3065,-5.3067,-5.307,-5.3245,-5.3247,-5.325,-5.3224,-5.3221,-5.3217,-5.3214,-5.3388,-5.3397,-5.3406,0,0,0,0,0,0,0,0,0,0,0,0,0,-5.2861,-5.2701,-5.3065,-5.3078,-5.3081,-5.3245,-5.3248,-5.3251,-5.3225,-5.3221,-5.3216,-5.3212,-5.3386,-5.3396,-5.3407,-5.3566,0,0,-5.3442,-5.3446,0,0,0,0,0,0,0,0,-5.2851,-5.2874,-5.3074,-5.3078,-5.3081,-5.3208,-5.318,-5.3356,-5.3226,-5.317,-5.3215,-5.321,-5.3333,-5.3348,-5.3392,-5.3574,-5.3582,-5.3443,-5.3449,-5.3454,-5.3457,0,0,0,0,0,0,0,-5.2839,-5.2866,-5.3136,-5.3077,-5.3081,-5.3073,-5.3092,-5.3213,-5.3274,-5.3175,-5.3173,-5.3196,-5.3334,-5.3381,-5.3395,-5.3584,-5.3442,-5.3452,-5.3459,-5.3464,-5.3907,-5.3912,0,0,0,0,0,0,-5.2825,-5.2857,-5.313,-5.3141,-5.2953,-5.3083,-5.3105,-5.3171,-5.3273,-5.3284,-5.3199,-5.3194,-5.3364,-5.3382,-5.3402,-5.3595,-5.3454,-5.3465,-5.3471,-5.3902,-5.3908,-5.3913,0,0,0,0,0,0,-5.2817,-5.285,-5.3123,-5.2999,-5.3033,-5.3094,-5.317,-5.3177,-5.3224,-5.3292,-5.3301,-5.3236,-5.3361,-5.3386,-5.3526,-5.3601,-5.347,-5.348,-5.3896,-5.3904,-5.3911,-5.3983,0,0,0,0,0,0,-5.2807,-5.2847,-5.291,-5.3001,-5.304,-5.3247,-5.3174,-5.3184,-5.3245,-5.3239,-5.3329,-5.3339,-5.336,-5.351,-5.3537,-5.3614,-5.3489,-5.3889,-5.3899,-5.3908,-5.3974,-5.3992,-5.4007,0,0,0,0,0,-5.2793,-5.2921,-5.2913,-5.2946,-5.312,-5.3252,-5.3274,-5.3297,-5.3251,-5.3313,-5.3357,-5.3337,-5.3588,-5.3524,-5.3555,-5.3636,-5.3885,-5.3897,-5.3908,-5.3966,-5.3988,-5.4007,0,0,0,0,0,0,-5.2834,-5.2933,-5.2925,-5.3087,-5.3162,-5.3247,-5.3327,-5.3319,-5.3406,-5.3397,-5.3419,-5.3439,-5.3582,-5.3622,-5.355,-5.3795,-5.373,-5.3748,-5.3764,-5.3785,-5.3801,-5.3789,-5.3498,0,0,0,0,0,-5.2862,-5.2963,-5.3043,-5.3177,-5.3216,-5.3265,-5.3323,-5.3335,-5.3412,-5.3442,-5.3496,-5.3569,-5.3664,-5.3727,-5.3818,-5.3979,-5.3998,-5.405,-5.4066,-5.408,-5.4095,-5.4184,-5.4208,-5.3951,-5.3951,-5.3951,0,0,-5.292,-5.2987,-5.3049,-5.3187,-5.3246,-5.3349,-5.3291,-5.3402,-5.3477,-5.3458,-5.3595,-5.3637,-5.372,-5.3872,-5.3941,-5.391,-5.4171,-5.4094,-5.4104,-5.4113,-5.4198,-5.4222,-5.4244,-5.3959,-5.3957,-5.3956,0,0,-5.3079,-5.314,-5.3259,-5.332,-5.3412,-5.3444,-5.3473,-5.3561,-5.3589,-5.3727,-5.3715,-5.3804,-5.3968,-5.4028,-5.408,-5.4263,-5.4248,-5.4292,-5.4378,-5.4465,-5.4485,-5.4503,-5.4569,-5.4592,-5.4307,-5.4307,-5.4307,0,-5.3139,-5.3295,-5.332,-5.3434,-5.3495,-5.3485,-5.3605,-5.3662,-5.3778,-5.3819,-5.3783,-5.399,-5.4045,-5.4211,-5.4256,-5.4298,-5.4331,-5.4282,-5.4481,-5.4499,-5.4516,-5.4579,-5.4604,-5.4312,-5.4311,-5.4311,-5.431,0,-5.3365,-5.3474,-5.3558,-5.3675,-5.3745,-5.386,-5.3901,-5.3969,-5.3974,-5.401,-5.415,-5.4216,-5.4322,-5.4362,-5.4366,-5.4529,-5.4507,-5.4476,-5.441,-5.4545,-5.4605,-5.4629,-5.4319,-5.4317,-5.4316,-5.4314,0,0,-5.3554,-5.3684,-5.3715,-5.3768,-5.3869,-5.3952,-5.4066,-5.4173,-5.4231,-5.431,-5.4406,-5.4546,-5.4519,-5.4578,-5.4589,-5.4665,-5.4806,-5.4624,-5.4626,-5.4656,-5.499,-5.5013,-5.5041,-5.4797,-5.4802,-5.4805,-5.4983,0,-5.3723,-5.393,-5.3956,-5.4138,-5.4239,-5.4231,-5.4331,-5.4403,-5.4439,-5.4527,-5.4565,-5.4665,-5.462,-5.4656,-5.4731,-5.4774,-5.4874,-5.4761,-5.4885,-5.4889,-5.4866,-5.5072,-5.5097,-5.5262,-5.5006,-5.501,-5.5013,0,-5.3948,-5.4039,-5.4232,-5.4321,-5.4364,-5.4454,-5.4554,-5.4639,-5.4719,-5.474,-5.4807,-5.4809,-5.4926,-5.4856,-5.5016,-5.4939,-5.499,-5.5019,-5.5026,-5.5039,-5.496,-5.5091,-5.5315,-5.534,-5.505,-5.5047,-5.5044,0,-5.4068,-5.4237,-5.4375,-5.4421,-5.4527,-5.4591,-5.4637,-5.4714,-5.4776,-5.4862,-5.4903,-5.5,-5.5054,-5.5128,-5.5155,-5.5102,-5.5314,-5.5246,-5.5334,-5.5333,-5.5379,-5.5376,-5.5615,-5.5412,-5.5411,-5.5411,-5.541,0,-5.4254,-5.4373,-5.4431,-5.4516,-5.4648,-5.4676,-5.4806,-5.4849,-5.4918,-5.5009,-5.5007,-5.5092,-5.5124,-5.5214,-5.5235,-5.5365,-5.5388,-5.5407,-5.5412,-5.5409,-5.5406,-5.5443,-5.5433,-5.5417,-5.5416,-5.5414,-5.5413,0,-5.441,-5.4454,-5.4605,-5.4694,-5.4719,-5.4813,-5.4889,-5.497,-5.5005,-5.5121,-5.515,-5.5205,-5.5311,-5.5346,-5.5472,-5.5487,-5.5639,-5.5632,-5.5613,-5.5614,-5.57,-5.5691,-5.5972,-5.601,-5.578,-5.5782,-5.5784,0,-5.4527,-5.4619,-5.472,-5.4783,-5.4833,-5.4934,-5.4999,-5.5029,-5.5097,-5.5196,-5.5265,-5.5371,-5.5458,-5.5627,-5.5676,-5.5773,-5.577,-5.5861,-5.5784,-5.5778,-5.5772,-5.5767,-5.5776,-5.5876,-5.5878,-5.588,-5.5882,0,-5.473,-5.4748,-5.4843,-5.4947,-5.5026,-5.5107,-5.5186,-5.5237,-5.5279,-5.5354,-5.5465,-5.5532,-5.5664,-5.5769,-5.5868,-5.5913,-5.5905,-5.5906,-5.5931,-5.5929,-5.5914,-5.5924,-5.5653,-5.5899,-5.5897,-5.5896,-5.5895,-5.5894,-5.4871,-5.4953,-5.5038,-5.5144,-5.5207,-5.5282,-5.5363,-5.541,-5.5504,-5.5616,-5.5627,-5.5746,-5.5824,-5.5957,-5.6007,-5.6099,-5.6073,-5.6109,-5.6119,-5.6128,-5.6135,-5.5899,-5.6117,-5.6116,-5.6116,-5.6115,-5.6115,0,-5.5075,-5.5129,-5.5227,-5.534,-5.5424,-5.5411,-5.5498,-5.5568,-5.5674,-5.5749,-5.5835,-5.5962,-5.6064,-5.6122,-5.6224,-5.6286,-5.6285,-5.6312,-5.6307,-5.6318,-5.6152,-5.6121,-5.6311,-5.6311,-5.6311,-5.6311,-5.6311,-5.6311,-5.5191,-5.5329,-5.5357,-5.5526,-5.5579,-5.5699,-5.575,-5.5818,-5.5878,-5.6021,-5.6107,-5.6146,-5.6213,-5.632,-5.6413,-5.6427,-5.6464,-5.6494,-5.6506,-5.635,-5.633,-5.631,-5.6281,-5.6502,-5.6502,-5.6664,-5.6666,-5.6667]}]]